GFSCGP_500_temp_057.txt.gz
Temp
-5 -5 -4 -5 -5 -5 -5 -5 -5 -6 -6 -6 -6 -5 -4 -6 -6 -6 -6 -7 -7 -6 -6 -6 -5 -5 -7 -5 -6 -6 -6 -6 -5 -6 -6 -6 -6 -6 -6 -7 -7 -7 -6 -7
-5 -4 -5 -6 -5 -6 -6 -6 -5 -7 -7 -7 -7 -6 -5 -5 -6 -6 -7 -7 -8 -7 -6 -6 -6 -5 -6 -5 -6 -6 -6 -6 -6 -6 -6 -5 -6 -6 -6 -6 -6 -6 -6 -6
-5 -5 -6 -6 -6 -6 -6 -6 -6 -7 -8 -8 -8 -7 -6 -5 -5 -5 -6 -7 -8 -8 -7 -6 -6 -6 -5 -5 -5 -6 -6 -6 -6 -5 -5 -5 -6 -6 -6 -6 -6 -6 -6 -6
-6 -6 -6 -6 -6 -6 -6 -6 -7 -7 -9 -8 -8 -7 -6 -6 -6 -5 -6 -7 -8 -8 -8 -6 -6 -5 -6 -5 -5 -5 -6 -6 -6 -5 -6 -6 -5 -5 -6 -6 -6 -6 -6 -6
-5 -6 -6 -6 -6 -7 -6 -7 -7 -7 -9 -9 -9 -8 -5 -6 -5 -5 -6 -7 -7 -7 -8 -7 -6 -6 -6 -5 -5 -5 -5 -5 -5 -5 -5 -5 -5 -5 -6 -6 -6 -6 -6 -6
-6 -6 -7 -6 -8 -7 -7 -8 -8 -8 -9 -9 -9 -8 -5 -4 -5 -6 -6 -7 -7 -8 -8 -8 -6 -6 -6 -5 -4 -5 -5 -5 -5 -5 -5 -5 -5 -6 -6 -5 -6 -6 -6 -6
-7 -6 -6 -7 -8 -9 -8 -8 -8 -8 -9 -7 -7 -9 -4 -4 -5 -6 -6 -6 -7 -8 -8 -8 -7 -6 -6 -5 -4 -4 -5 -5 -5 -5 -5 -5 -5 -6 -5 -5 -5 -5 -5 -5
-8 -7 -6 -7 -8 -8 -8 -8 -7 -6 -6 -6 -6 -5 -3 -4 -5 -6 -6 -7 -8 -8 -8 -8 -8 -6 -6 -5 -5 -5 -5 -5 -5 -5 -5 -5 -5 -5 -5 -5 -5 -5 -5 -5
-10 -7 -8 -7 -8 -9 -9 -7 -8 -7 -7 -6 -5 -6 -4 -5 -5 -6 -6 -7 -8 -7 -8 -8 -8 -7 -6 -5 -5 -4 -5 -5 -5 -5 -5 -5 -5 -5 -6 -6 -5 -5 -5 -5
-12 -8 -9 -8 -9 -10 -9 -8 -8 -7 -7 -6 -5 -6 -4 -5 -5 -5 -6 -6 -8 -8 -8 -8 -8 -7 -6 -5 -5 -5 -5 -5 -5 -5 -5 -5 -5 -5 -5 -5 -5 -5 -5 -5
-14 -10 -11 -11 -10 -8 -9 -8 -8 -9 -7 -6 -4 -5 -5 -6 -6 -5 -6 -6 -6 -7 -8 -7 -8 -8 -6 -5 -5 -5 -5 -5 -4 -4 -5 -5 -5 -5 -5 -5 -5 -5 -5 -5
-17 -12 -11 -11 -10 -9 -10 -9 -9 -8 -6 -6 -5 -3 -5 -6 -6 -6 -6 -6 -6 -6 -7 -7 -8 -8 -6 -5 -5 -5 -5 -5 -5 -5 -5 -5 -5 -5 -5 -5 -5 -5 -5 -5
-17 -15 -11 -13 -12 -11 -11 -10 -8 -7 -8 -6 -5 -3 -6 -6 -8 -7 -7 -7 -7 -7 -7 -7 -7 -8 -7 -5 -5 -5 -5 -5 -5 -5 -5 -5 -4 -5 -5 -5 -5 -5 -5 -4
-17 -16 -13 -13 -13 -12 -10 -9 -9 -9 -8 -7 -4 -6 -7 -7 -7 -8 -8 -8 -7 -7 -7 -7 -7 -8 -8 -6 -5 -5 -5 -5 -5 -5 -5 -5 -5 -5 -5 -5 -5 -5 -4 -4
-17 -16 -14 -12 -13 -12 -10 -9 -8 -8 -7 -7 -6 -6 -7 -7 -8 -8 -7 -7 -6 -6 -7 -7 -7 -7 -8 -7 -5 -5 -5 -5 -5 -5 -5 -5 -5 -5 -5 -5 -5 -4 -5 -5
-18 -17 -15 -12 -12 -12 -11 -10 -10 -9 -8 -8 -7 -7 -8 -8 -8 -7 -7 -6 -6 -6 -7 -7 -6 -7 -7 -7 -6 -6 -5 -5 -5 -5 -5 -5 -5 -5 -5 -5 -5 -5 -5 -5
-17 -17 -15 -12 -13 -12 -11 -11 -10 -10 -10 -9 -7 -7 -8 -8 -7 -6 -6 -6 -6 -6 -7 -7 -7 -6 -7 -7 -7 -7 -6 -5 -5 -5 -5 -5 -5 -5 -6 -6 -5 -5 -6 -5
-18 -17 -15 -14 -13 -13 -11 -11 -11 -11 -10 -7 -6 -7 -8 -7 -7 -6 -6 -6 -7 -7 -7 -7 -7 -7 -8 -8 -7 -8 -7 -6 -6 -6 -5 -5 -5 -6 -6 -6 -6 -6 -6 -6
-18 -16 -15 -14 -14 -13 -12 -11 -11 -12 -9 -7 -7 -8 -8 -7 -7 -6 -7 -7 -7 -7 -7 -7 -8 -8 -8 -8 -8 -8 -8 -7 -7 -6 -7 -7 -7 -7 -7 -7 -7 -7 -7 -7
-18 -16 -15 -14 -13 -12 -12 -12 -11 -11 -10 -8 -8 -8 -8 -8 -7 -7 -7 -8 -7 -7 -7 -7 -7 -8 -8 -8 -8 -9 -8 -7 -7 -7 -8 -8 -8 -8 -7 -7 -7 -7 -7 -7
-17 -15 -14 -14 -13 -12 -12 -12 -11 -12 -10 -9 -9 -8 -8 -8 -7 -7 -7 -7 -8 -8 -8 -7 -7 -7 -7 -7 -8 -8 -8 -7 -7 -8 -8 -8 -8 -8 -8 -8 -7 -7 -7 -7
-17 -14 -13 -13 -13 -12 -11 -11 -11 -11 -10 -9 -8 -8 -8 -8 -8 -8 -8 -8 -8 -8 -7 -7 -7 -7 -8 -8 -8 -8 -9 -8 -8 -7 -8 -8 -8 -8 -8 -8 -8 -7 -7 -7
-16 -14 -13 -13 -12 -12 -12 -12 -11 -11 -10 -10 -9 -8 -8 -8 -8 -8 -8 -8 -8 -7 -7 -6 -7 -7 -7 -8 -8 -9 -8 -8 -8 -9 -8 -8 -8 -8 -8 -8 -8 -7 -8 -8
-16 -14 -14 -13 -13 -13 -12 -11 -11 -11 -10 -9 -9 -8 -8 -8 -8 -8 -8 -8 -8 -8 -7 -7 -6 -7 -6 -6 -7 -7 -7 -8 -8 -8 -9 -8 -8 -8 -8 -8 -8 -8 -8 -8
-16 -15 -13 -14 -13 -12 -13 -12 -11 -10 -10 -9 -9 -7 -8 -9 -9 -8 -8 -8 -8 -8 -8 -8 -8 -8 -7 -7 -7 -7 -7 -7 -7 -7 -8 -8 -7 -8 -7 -7 -7 -7 -7 -7
-17 -15 -14 -14 -13 -12 -12 -12 -12 -10 -10 -9 -8 -8 -7 -9 -9 -9 -9 -8 -8 -8 -8 -8 -8 -9 -9 -8 -8 -8 -7 -7 -6 -6 -6 -7 -7 -7 -7 -7 -6 -7 -7 -7

GFSCGP_500_temp_060.txt.gz
Temp
-6 -5 -5 -6 -6 -6 -5 -5 -5 -6 -6 -6 -6 -7 -7 -6 -4 -5 -6 -7 -7 -6 -6 -5 -6 -6 -6 -6 -6 -6 -6 -6 -6 -6 -6 -6 -6 -6 -6 -6 -6 -6 -7 -7
-6 -5 -6 -6 -6 -6 -6 -6 -6 -7 -7 -6 -7 -7 -7 -6 -5 -6 -6 -7 -7 -6 -6 -6 -6 -6 -5 -6 -6 -6 -6 -6 -6 -6 -6 -6 -6 -6 -6 -6 -6 -7 -6 -6
-6 -6 -6 -7 -6 -6 -6 -6 -6 -7 -8 -7 -7 -6 -7 -6 -5 -4 -5 -6 -7 -6 -6 -6 -6 -6 -6 -5 -6 -6 -6 -6 -6 -6 -6 -6 -6 -6 -6 -6 -6 -6 -7 -6
-7 -6 -6 -6 -7 -7 -6 -6 -7 -8 -8 -7 -7 -5 -6 -6 -6 -5 -6 -5 -6 -7 -6 -6 -6 -5 -6 -5 -6 -6 -6 -6 -5 -5 -6 -6 -6 -7 -6 -6 -6 -6 -6 -6
-6 -7 -6 -6 -6 -7 -7 -7 -7 -8 -9 -9 -8 -7 -6 -6 -5 -5 -6 -6 -6 -7 -7 -6 -6 -6 -6 -5 -5 -6 -6 -5 -5 -6 -6 -6 -6 -5 -6 -6 -6 -6 -6 -6
-8 -7 -7 -6 -8 -8 -8 -8 -8 -8 -9 -9 -8 -7 -4 -4 -4 -6 -6 -7 -7 -6 -7 -7 -6 -6 -5 -5 -5 -5 -6 -6 -5 -6 -6 -6 -5 -6 -6 -6 -6 -6 -6 -6
-9 -8 -8 -7 -8 -8 -8 -8 -9 -9 -9 -5 -7 -8 -3 -4 -5 -6 -6 -7 -7 -7 -7 -7 -6 -6 -6 -5 -5 -5 -5 -6 -5 -5 -5 -5 -5 -6 -5 -5 -5 -5 -6 -6
-11 -9 -10 -8 -8 -9 -8 -8 -8 -7 -6 -5 -7 -5 -1 -4 -6 -7 -7 -7 -7 -8 -7 -7 -7 -7 -6 -6 -5 -5 -5 -6 -6 -5 -6 -5 -5 -5 -5 -5 -5 -5 -6 -6
-12 -11 -10 -11 -9 -9 -9 -8 -8 -8 -7 -6 -6 -6 -3 -4 -6 -7 -7 -7 -7 -7 -8 -7 -7 -7 -6 -6 -5 -5 -5 -5 -6 -6 -6 -5 -6 -6 -6 -6 -5 -5 -6 -6
-14 -12 -12 -12 -11 -10 -9 -9 -9 -8 -7 -6 -6 -6 -3 -3 -5 -7 -7 -7 -7 -8 -8 -8 -7 -6 -6 -6 -5 -5 -5 -5 -6 -6 -6 -6 -6 -6 -6 -5 -5 -6 -5 -6
-16 -14 -13 -13 -12 -12 -11 -10 -9 -9 -8 -6 -5 -5 -5 -4 -5 -7 -7 -7 -7 -7 -8 -8 -8 -7 -6 -6 -5 -5 -5 -5 -5 -6 -6 -6 -6 -5 -5 -5 -5 -5 -5 -5
-17 -16 -14 -14 -14 -12 -13 -10 -9 -8 -7 -6 -6 -5 -5 -6 -6 -7 -8 -8 -8 -7 -8 -8 -8 -8 -6 -6 -6 -5 -5 -5 -5 -5 -5 -5 -5 -5 -5 -5 -5 -5 -5 -5
-17 -17 -16 -14 -14 -14 -13 -11 -10 -8 -9 -7 -6 -4 -6 -5 -6 -6 -7 -8 -8 -8 -8 -8 -8 -8 -7 -6 -6 -5 -5 -5 -5 -5 -5 -5 -5 -5 -5 -5 -5 -5 -5 -5
-18 -17 -17 -15 -15 -15 -13 -12 -11 -9 -8 -7 -6 -5 -6 -6 -6 -6 -7 -8 -8 -8 -8 -8 -8 -7 -6 -6 -6 -5 -5 -5 -5 -5 -5 -5 -5 -5 -5 -5 -5 -5 -5 -4
-22 -19 -18 -17 -16 -15 -13 -12 -11 -9 -8 -7 -7 -6 -5 -7 -6 -7 -7 -8 -8 -7 -8 -8 -8 -8 -7 -6 -6 -5 -5 -5 -5 -5 -5 -5 -5 -5 -5 -5 -5 -5 -5 -5
-24 -21 -19 -17 -16 -15 -14 -12 -12 -10 -8 -7 -7 -6 -7 -8 -7 -7 -7 -7 -8 -7 -8 -8 -8 -8 -9 -8 -6 -6 -6 -5 -5 -5 -6 -5 -5 -5 -5 -5 -5 -5 -5 -5
-24 -24 -19 -17 -17 -15 -14 -13 -12 -11 -9 -8 -8 -7 -7 -9 -9 -7 -7 -7 -7 -7 -6 -7 -7 -8 -8 -9 -7 -6 -6 -5 -5 -5 -6 -6 -6 -6 -5 -5 -5 -5 -6 -5
-24 -24 -20 -18 -17 -15 -14 -14 -12 -11 -9 -9 -7 -8 -9 -9 -9 -7 -6 -7 -7 -6 -6 -6 -7 -8 -8 -8 -8 -8 -6 -5 -6 -6 -6 -6 -6 -6 -5 -5 -5 -6 -6 -6
-23 -22 -20 -18 -16 -15 -15 -14 -13 -12 -10 -10 -8 -8 -9 -9 -8 -7 -7 -7 -6 -7 -7 -7 -7 -8 -8 -7 -8 -8 -7 -6 -6 -6 -6 -6 -6 -6 -6 -6 -6 -6 -6 -6
-21 -20 -19 -18 -16 -15 -15 -13 -13 -11 -11 -10 -9 -8 -9 -8 -8 -8 -7 -7 -6 -7 -7 -7 -7 -8 -8 -8 -8 -8 -8 -7 -6 -6 -6 -6 -7 -7 -7 -7 -7 -7 -7 -7
-20 -18 -17 -16 -16 -14 -14 -13 -12 -12 -12 -10 -9 -8 -9 -8 -8 -8 -7 -6 -7 -7 -7 -8 -8 -8 -8 -8 -8 -8 -7 -7 -7 -6 -7 -7 -8 -8 -8 -8 -8 -7 -7 -7
-19 -17 -17 -16 -16 -14 -13 -13 -12 -12 -11 -10 -8 -8 -8 -8 -8 -8 -7 -7 -7 -7 -7 -8 -8 -8 -8 -8 -8 -8 -8 -8 -7 -8 -7 -7 -8 -8 -8 -8 -8 -8 -7 -7
-18 -17 -17 -15 -15 -15 -14 -13 -11 -12 -11 -10 -8 -8 -8 -8 -7 -8 -8 -7 -7 -8 -8 -8 -8 -8 -8 -8 -8 -9 -9 -8 -8 -9 -9 -8 -8 -8 -8 -8 -8 -8 -8 -8
-18 -17 -17 -15 -15 -14 -13 -13 -12 -12 -11 -10 -9 -9 -9 -8 -8 -8 -8 -8 -7 -8 -8 -8 -8 -8 -8 -8 -8 -9 -9 -9 -9 -9 -9 -9 -9 -9 -9 -8 -8 -8 -8 -8
-17 -16 -16 -14 -14 -14 -12 -11 -11 -10 -11 -11 -9 -9 -9 -8 -8 -8 -8 -8 -8 -8 -8 -8 -8 -8 -8 -9 -9 -9 -9 -9 -8 -9 -9 -8 -9 -9 -9 -9 -9 -8 -8 -8
-15 -15 -15 -15 -14 -13 -13 -13 -12 -12 -10 -10 -9 -9 -9 -9 -8 -8 -8 -8 -8 -8 -8 -8 -8 -8 -8 -9 -9 -9 -9 -9 -9 -9 -9 -9 -8 -9 -9 -9 -9 -8 -8 -8

GFSCGP_500_temp_063.txt.gz
Temp
-6 -6 -5 -6 -6 -6 -6 -6 -5 -5 -5 -5 -6 -7 -7 -7 -7 -6 -6 -6 -6 -6 -6 -6 -6 -6 -6 -6 -6 -6 -6 -6 -6 -6 -7 -6 -6 -6 -6 -6 -6 -6 -6 -6
-6 -5 -7 -6 -7 -7 -7 -6 -6 -6 -6 -5 -5 -6 -7 -6 -7 -7 -6 -6 -6 -6 -6 -6 -5 -6 -6 -6 -6 -6 -6 -6 -6 -6 -6 -6 -6 -6 -6 -6 -6 -6 -6 -6
-6 -6 -6 -7 -7 -7 -7 -6 -7 -7 -7 -7 -6 -6 -7 -6 -7 -7 -6 -4 -4 -6 -6 -5 -5 -5 -6 -6 -6 -6 -6 -6 -6 -6 -6 -6 -6 -6 -6 -6 -6 -6 -6 -6
-7 -6 -6 -7 -7 -7 -7 -7 -7 -8 -8 -8 -7 -5 -7 -6 -7 -7 -7 -6 -5 -5 -6 -6 -6 -5 -6 -6 -6 -6 -6 -6 -6 -6 -6 -6 -6 -7 -6 -6 -6 -6 -6 -5
-7 -7 -6 -6 -7 -8 -8 -8 -8 -8 -8 -8 -8 -6 -6 -6 -6 -6 -7 -7 -6 -5 -5 -6 -6 -5 -5 -6 -6 -6 -6 -5 -6 -6 -6 -6 -6 -6 -5 -5 -6 -6 -6 -5
-9 -8 -7 -7 -8 -8 -9 -9 -8 -8 -8 -7 -6 -6 -4 -6 -5 -6 -7 -8 -7 -6 -6 -6 -6 -5 -5 -5 -5 -5 -5 -5 -5 -6 -6 -6 -6 -5 -6 -6 -6 -6 -6 -6
-11 -10 -8 -8 -8 -8 -8 -9 -9 -9 -8 -4 -6 -6 -3 -5 -5 -6 -7 -8 -8 -7 -7 -6 -5 -6 -6 -5 -5 -5 -5 -5 -5 -5 -6 -6 -6 -6 -6 -6 -6 -6 -6 -5
-13 -12 -10 -9 -8 -9 -9 -9 -8 -8 -7 -6 -6 -4 -2 -5 -5 -6 -7 -8 -8 -7 -7 -7 -6 -5 -5 -5 -5 -5 -5 -5 -6 -6 -6 -6 -5 -6 -6 -6 -6 -6 -6 -5
-14 -13 -12 -11 -10 -10 -10 -9 -8 -9 -8 -6 -7 -6 -4 -4 -6 -6 -7 -8 -8 -8 -6 -7 -6 -6 -5 -5 -6 -5 -5 -5 -5 -6 -6 -6 -6 -6 -6 -6 -6 -6 -5 -5
-14 -14 -13 -13 -12 -11 -10 -10 -11 -10 -8 -7 -7 -6 -3 -4 -6 -6 -7 -7 -8 -8 -7 -7 -6 -6 -5 -6 -6 -5 -6 -5 -6 -6 -6 -5 -6 -6 -6 -6 -6 -6 -5 -5
-15 -14 -14 -14 -13 -13 -12 -12 -11 -10 -8 -7 -7 -5 -5 -4 -5 -6 -7 -7 -8 -8 -8 -7 -7 -7 -6 -6 -6 -6 -5 -5 -5 -5 -6 -5 -5 -6 -6 -6 -6 -6 -5 -5
-16 -15 -15 -15 -15 -14 -13 -12 -11 -11 -9 -8 -8 -6 -5 -5 -5 -7 -7 -7 -8 -8 -8 -8 -7 -7 -6 -6 -6 -5 -5 -5 -5 -5 -6 -6 -6 -6 -6 -6 -6 -6 -5 -5
-17 -17 -15 -16 -17 -16 -14 -14 -13 -10 -9 -8 -8 -6 -5 -5 -5 -6 -7 -7 -8 -8 -8 -8 -8 -7 -6 -6 -6 -5 -5 -5 -5 -5 -5 -5 -5 -5 -6 -6 -6 -6 -5 -5
-19 -18 -17 -16 -18 -17 -15 -14 -13 -11 -10 -9 -8 -7 -6 -5 -5 -6 -7 -8 -8 -8 -8 -8 -8 -8 -8 -6 -6 -6 -5 -5 -6 -5 -5 -5 -5 -5 -5 -6 -6 -5 -5 -5
-20 -19 -18 -17 -17 -17 -16 -15 -14 -12 -10 -9 -9 -7 -6 -6 -6 -7 -7 -8 -8 -8 -8 -8 -8 -8 -8 -7 -6 -6 -5 -5 -5 -5 -5 -5 -5 -5 -5 -5 -6 -5 -5 -5
-21 -20 -20 -19 -18 -18 -17 -16 -15 -13 -11 -9 -8 -7 -7 -7 -6 -6 -7 -7 -8 -8 -8 -8 -8 -8 -8 -7 -6 -6 -6 -5 -5 -5 -6 -6 -5 -5 -6 -6 -5 -5 -5 -5
-22 -22 -21 -20 -20 -18 -17 -16 -15 -13 -11 -10 -9 -8 -8 -7 -7 -6 -7 -7 -8 -8 -8 -8 -7 -8 -7 -8 -7 -6 -6 -6 -5 -5 -6 -6 -6 -6 -6 -6 -5 -5 -5 -5
-23 -23 -23 -22 -22 -19 -17 -17 -16 -14 -12 -10 -10 -9 -9 -8 -8 -7 -7 -7 -7 -7 -7 -8 -8 -8 -8 -8 -8 -7 -7 -6 -5 -5 -6 -6 -6 -6 -6 -6 -6 -5 -5 -5
-24 -24 -24 -23 -22 -19 -17 -16 -16 -14 -12 -11 -10 -9 -9 -8 -8 -8 -7 -7 -7 -7 -7 -8 -8 -8 -7 -8 -8 -8 -8 -7 -6 -5 -5 -6 -5 -5 -6 -5 -6 -5 -5 -5
-24 -24 -24 -23 -21 -18 -18 -16 -16 -15 -13 -12 -11 -10 -9 -9 -9 -9 -8 -7 -7 -7 -7 -8 -7 -7 -8 -7 -8 -9 -8 -8 -6 -6 -6 -6 -6 -6 -6 -6 -6 -6 -6 -6
-24 -24 -22 -21 -19 -18 -17 -17 -16 -15 -13 -12 -10 -9 -9 -10 -9 -9 -8 -7 -7 -7 -7 -7 -7 -7 -8 -7 -8 -9 -9 -8 -7 -6 -6 -6 -6 -6 -6 -6 -6 -6 -6 -6
-22 -21 -20 -19 -18 -17 -15 -16 -15 -15 -14 -13 -10 -9 -9 -10 -10 -9 -8 -8 -8 -6 -7 -7 -7 -7 -7 -8 -8 -8 -9 -8 -8 -7 -6 -6 -6 -6 -6 -6 -6 -6 -7 -7
-19 -18 -19 -19 -18 -17 -14 -15 -15 -15 -14 -13 -10 -9 -9 -10 -10 -9 -8 -8 -7 -7 -7 -7 -7 -7 -8 -8 -8 -8 -8 -8 -8 -7 -6 -6 -6 -6 -6 -7 -7 -7 -8 -8
-19 -18 -17 -18 -18 -17 -14 -15 -14 -14 -14 -13 -10 -10 -9 -10 -9 -9 -8 -8 -8 -7 -7 -8 -8 -8 -8 -8 -8 -8 -8 -8 -8 -8 -7 -7 -7 -7 -7 -7 -8 -8 -8 -8
-18 -18 -17 -17 -17 -16 -14 -14 -14 -14 -13 -12 -10 -10 -10 -9 -9 -9 -9 -8 -8 -7 -7 -7 -8 -8 -8 -8 -8 -8 -7 -9 -9 -8 -9 -8 -8 -8 -8 -8 -8 -8 -8 -8
-18 -17 -17 -17 -16 -15 -15 -15 -14 -14 -13 -12 -11 -10 -10 -9 -9 -9 -9 -9 -8 -8 -8 -8 -8 -8 -8 -8 -8 -8 -8 -9 -9 -9 -9 -9 -8 -9 -9 -9 -9 -9 -9 -9

GFSCGP_500_temp_069.txt.gz
Temp
-6 -6 -6 -6 -6 -6 -7 -8 -6 -8 -7 -5 -5 -8 -5 -6 -5 -5 -5 -5 -5 -5 -5 -5 -6 -7 -6 -6 -5 -5 -5 -5 -5 -5 -6 -6 -6 -6 -6 -6 -6 -6 -6 -6
-6 -6 -6 -6 -6 -6 -6 -6 -7 -7 -9 -8 -6 -6 -6 -6 -5 -5 -5 -5 -5 -4 -4 -5 -5 -6 -7 -6 -6 -5 -5 -5 -5 -5 -5 -5 -5 -6 -6 -6 -6 -6 -6 -5
-6 -6 -6 -6 -6 -6 -6 -6 -7 -7 -9 -6 -6 -8 -8 -5 -6 -5 -5 -6 -5 -5 -4 -4 -5 -5 -6 -6 -6 -5 -5 -5 -5 -5 -5 -5 -5 -5 -6 -6 -6 -5 -5 -5
-6 -6 -6 -6 -6 -6 -6 -7 -7 -7 -7 -9 -6 -7 -8 -6 -6 -5 -5 -5 -6 -6 -5 -5 -5 -5 -5 -6 -6 -5 -5 -5 -5 -5 -5 -5 -5 -5 -5 -5 -5 -5 -5 -5
-7 -7 -7 -6 -6 -7 -6 -7 -7 -7 -7 -7 -8 -7 -8 -7 -6 -6 -6 -6 -6 -6 -6 -6 -6 -5 -5 -5 -5 -5 -5 -5 -5 -5 -5 -5 -5 -5 -4 -5 -5 -5 -5 -5
-9 -9 -8 -7 -7 -7 -7 -7 -7 -7 -8 -7 -6 -8 -7 -7 -7 -5 -7 -7 -6 -6 -6 -6 -6 -6 -5 -5 -4 -4 -5 -5 -5 -4 -5 -5 -5 -5 -5 -5 -5 -5 -6 -5
-12 -11 -10 -9 -8 -7 -7 -8 -8 -8 -8 -6 -6 -6 -7 -8 -7 -7 -8 -7 -6 -6 -6 -6 -6 -6 -6 -5 -5 -5 -4 -5 -5 -4 -4 -5 -5 -5 -5 -5 -4 -5 -6 -5
-14 -14 -12 -11 -10 -10 -8 -8 -9 -8 -9 -6 -6 -6 -5 -7 -8 -7 -6 -8 -7 -7 -7 -6 -6 -6 -6 -6 -6 -4 -5 -5 -4 -5 -5 -5 -5 -5 -5 -5 -5 -5 -5 -5
-14 -14 -15 -13 -13 -12 -12 -12 -8 -11 -10 -9 -8 -6 -6 -7 -7 -8 -7 -8 -7 -7 -7 -7 -6 -6 -6 -6 -6 -5 -5 -5 -5 -4 -5 -5 -5 -5 -5 -5 -5 -5 -5 -5
-14 -13 -14 -14 -13 -12 -12 -13 -12 -12 -11 -10 -8 -8 -8 -8 -6 -7 -7 -8 -8 -8 -6 -7 -6 -6 -6 -7 -6 -6 -5 -5 -5 -5 -5 -5 -5 -5 -5 -5 -5 -5 -5 -5
-14 -13 -14 -14 -13 -13 -13 -12 -13 -13 -12 -11 -9 -8 -8 -9 -9 -7 -7 -7 -7 -6 -8 -7 -6 -7 -7 -7 -6 -6 -6 -5 -5 -5 -5 -5 -4 -4 -5 -5 -5 -5 -5 -5
-15 -14 -14 -14 -14 -14 -13 -15 -14 -13 -12 -12 -10 -9 -9 -9 -10 -7 -6 -6 -6 -7 -9 -8 -7 -7 -7 -7 -7 -6 -6 -5 -5 -5 -5 -5 -5 -5 -4 -5 -5 -5 -5 -5
-16 -14 -15 -15 -15 -15 -14 -14 -13 -14 -13 -12 -11 -10 -10 -10 -10 -10 -7 -6 -6 -7 -7 -9 -8 -7 -7 -6 -7 -6 -6 -6 -5 -5 -5 -5 -5 -5 -4 -5 -5 -5 -5 -5
-17 -17 -16 -17 -18 -18 -17 -15 -16 -15 -14 -13 -12 -11 -11 -10 -11 -10 -7 -7 -7 -8 -8 -9 -9 -8 -7 -7 -7 -7 -6 -6 -6 -5 -5 -5 -5 -5 -5 -5 -5 -5 -5 -5
-19 -18 -18 -17 -18 -17 -16 -17 -15 -15 -14 -13 -13 -12 -11 -11 -11 -11 -9 -8 -8 -9 -8 -8 -9 -8 -6 -7 -7 -7 -6 -6 -6 -5 -5 -5 -5 -5 -5 -5 -5 -5 -5 -5
-21 -19 -19 -18 -18 -18 -17 -15 -14 -14 -14 -13 -13 -12 -11 -11 -10 -10 -10 -8 -8 -7 -7 -7 -7 -8 -7 -7 -7 -7 -7 -6 -6 -6 -5 -5 -5 -5 -5 -5 -5 -5 -5 -5
-22 -21 -20 -20 -20 -18 -18 -16 -15 -14 -14 -14 -13 -11 -12 -10 -10 -11 -11 -8 -6 -7 -7 -7 -7 -8 -7 -7 -7 -7 -7 -7 -6 -6 -6 -5 -5 -5 -5 -5 -5 -5 -5 -5
-22 -22 -21 -20 -21 -20 -18 -18 -18 -18 -16 -15 -14 -13 -13 -11 -11 -11 -10 -8 -8 -8 -7 -7 -7 -8 -7 -7 -7 -7 -6 -7 -7 -6 -6 -5 -5 -5 -5 -5 -5 -5 -5 -5
-22 -22 -22 -21 -21 -21 -20 -20 -20 -16 -14 -14 -14 -13 -13 -13 -12 -9 -7 -7 -7 -8 -8 -8 -8 -8 -8 -7 -7 -7 -7 -7 -7 -6 -6 -6 -5 -5 -5 -5 -5 -5 -5 -5
-23 -22 -22 -22 -21 -22 -21 -20 -20 -17 -15 -16 -15 -14 -13 -13 -13 -10 -11 -9 -8 -8 -8 -8 -8 -8 -8 -8 -7 -7 -7 -7 -7 -6 -6 -6 -5 -5 -5 -5 -5 -5 -5 -5
-22 -22 -22 -22 -22 -22 -22 -21 -19 -18 -16 -16 -16 -17 -18 -14 -12 -13 -10 -8 -9 -8 -8 -8 -8 -8 -8 -8 -8 -7 -7 -7 -8 -8 -7 -6 -6 -5 -5 -5 -5 -5 -5 -5
-22 -22 -22 -22 -22 -21 -22 -21 -20 -18 -17 -17 -16 -15 -15 -16 -13 -9 -8 -9 -9 -9 -8 -8 -8 -8 -8 -8 -8 -8 -7 -8 -8 -8 -7 -6 -6 -6 -5 -5 -5 -5 -5 -5
-21 -21 -21 -21 -21 -21 -22 -22 -20 -19 -18 -17 -17 -15 -15 -14 -10 -9 -9 -10 -10 -9 -9 -8 -8 -8 -8 -8 -8 -8 -7 -8 -8 -7 -7 -7 -7 -6 -5 -5 -5 -5 -5 -5
-20 -20 -20 -21 -21 -20 -21 -21 -20 -19 -18 -17 -17 -15 -15 -14 -11 -10 -9 -9 -10 -9 -9 -8 -8 -8 -8 -8 -8 -8 -7 -8 -8 -7 -7 -8 -7 -7 -6 -6 -5 -5 -5 -5
-20 -20 -20 -20 -19 -19 -19 -19 -20 -18 -18 -17 -17 -15 -15 -15 -12 -11 -10 -10 -10 -10 -9 -8 -7 -8 -8 -8 -8 -8 -8 -8 -7 -8 -8 -7 -7 -7 -7 -6 -6 -5 -5 -6
-19 -19 -19 -19 -19 -19 -19 -18 -18 -19 -18 -17 -16 -15 -15 -14 -13 -11 -10 -10 -10 -11 -9 -8 -7 -7 -7 -8 -8 -8 -8 -8 -8 -8 -8 -7 -7 -7 -7 -6 -6 -6 -6 -6

GFSCGP_500_temp_072.txt.gz
Temp
-6 -6 -5 -6 -6 -6 -6 -7 -6 -6 -7 -8 -8 -8 -5 -5 -5 -4 -4 -5 -4 -4 -4 -4 -5 -5 -6 -6 -5 -5 -5 -5 -5 -5 -5 -5 -6 -5 -6 -6 -5 -5 -5 -6
-6 -6 -6 -6 -6 -6 -6 -6 -6 -7 -6 -8 -8 -9 -7 -5 -6 -5 -4 -5 -4 -4 -4 -4 -4 -5 -5 -6 -6 -5 -5 -5 -4 -5 -5 -5 -5 -5 -6 -6 -5 -5 -5 -5
-6 -6 -7 -6 -6 -6 -6 -6 -6 -6 -8 -8 -8 -8 -8 -5 -6 -5 -4 -5 -4 -4 -4 -4 -4 -4 -5 -5 -6 -5 -5 -5 -5 -5 -5 -5 -5 -5 -5 -5 -5 -5 -5 -5
-6 -6 -6 -6 -6 -6 -6 -6 -6 -6 -7 -7 -8 -8 -8 -5 -5 -4 -3 -5 -4 -4 -5 -4 -5 -5 -5 -5 -5 -5 -5 -5 -5 -4 -5 -5 -5 -5 -5 -5 -5 -5 -5 -5
-7 -7 -7 -6 -6 -7 -6 -7 -7 -7 -6 -7 -7 -8 -7 -8 -7 -5 -4 -5 -5 -5 -4 -5 -5 -5 -5 -4 -4 -5 -5 -5 -5 -4 -5 -5 -5 -5 -5 -5 -5 -5 -5 -5
-7 -7 -7 -7 -7 -6 -7 -7 -7 -6 -7 -7 -6 -7 -8 -8 -7 -8 -6 -5 -6 -4 -5 -5 -5 -5 -5 -5 -4 -4 -5 -5 -5 -4 -4 -5 -5 -5 -5 -5 -5 -5 -4 -4
-10 -9 -9 -9 -7 -7 -7 -8 -7 -7 -7 -6 -6 -6 -4 -7 -8 -7 -5 -6 -5 -4 -5 -5 -4 -4 -5 -5 -6 -5 -5 -5 -5 -5 -4 -5 -4 -5 -5 -5 -4 -5 -5 -4
-11 -12 -11 -11 -9 -9 -9 -9 -9 -8 -7 -5 -6 -6 -4 -5 -6 -8 -6 -6 -4 -4 -3 -5 -4 -4 -4 -5 -5 -6 -5 -5 -5 -4 -4 -5 -5 -4 -5 -5 -4 -5 -5 -5
-13 -12 -14 -14 -12 -12 -10 -13 -8 -11 -11 -9 -9 -8 -6 -6 -7 -7 -8 -5 -5 -5 -4 -4 -5 -4 -4 -4 -5 -6 -6 -5 -5 -5 -4 -4 -5 -4 -5 -5 -5 -5 -4 -5
-12 -12 -12 -14 -14 -14 -14 -11 -12 -12 -12 -11 -9 -9 -8 -7 -6 -7 -7 -6 -5 -5 -4 -4 -4 -5 -4 -4 -4 -5 -5 -5 -5 -5 -5 -4 -5 -5 -5 -5 -5 -5 -5 -5
-13 -13 -13 -13 -14 -15 -14 -13 -12 -13 -12 -11 -10 -9 -8 -8 -7 -7 -6 -6 -5 -5 -4 -7 -5 -5 -5 -5 -5 -5 -5 -5 -5 -5 -5 -4 -4 -4 -4 -5 -5 -5 -5 -5
-13 -14 -13 -14 -14 -15 -15 -15 -13 -13 -12 -12 -11 -10 -8 -7 -8 -8 -7 -7 -7 -7 -5 -5 -6 -5 -6 -5 -5 -5 -6 -5 -5 -5 -5 -5 -4 -4 -4 -5 -5 -5 -5 -5
-15 -14 -14 -14 -14 -14 -15 -13 -13 -14 -13 -12 -12 -9 -8 -8 -9 -9 -9 -7 -7 -7 -7 -7 -6 -7 -6 -6 -5 -5 -6 -6 -5 -5 -5 -5 -5 -4 -4 -5 -5 -5 -5 -5
-18 -16 -16 -15 -16 -16 -16 -16 -16 -15 -14 -12 -11 -11 -10 -10 -10 -10 -10 -10 -7 -6 -8 -7 -7 -5 -6 -5 -6 -6 -6 -7 -6 -5 -5 -5 -5 -5 -5 -5 -5 -5 -5 -5
-20 -19 -18 -17 -17 -17 -16 -16 -16 -15 -14 -14 -12 -11 -11 -11 -10 -10 -11 -10 -8 -9 -9 -9 -9 -9 -7 -6 -6 -6 -6 -7 -6 -5 -5 -5 -5 -5 -5 -5 -5 -5 -5 -5
-21 -20 -20 -18 -17 -17 -16 -16 -16 -14 -14 -14 -12 -13 -12 -11 -10 -10 -10 -10 -10 -8 -10 -10 -9 -9 -9 -6 -6 -6 -6 -6 -6 -6 -5 -5 -5 -5 -5 -5 -5 -5 -5 -5
-21 -21 -21 -19 -20 -18 -17 -16 -17 -15 -13 -13 -13 -10 -12 -12 -11 -10 -10 -10 -10 -10 -8 -7 -7 -9 -6 -5 -5 -6 -7 -7 -7 -6 -6 -5 -5 -5 -5 -5 -5 -5 -5 -5
-22 -21 -21 -20 -20 -20 -17 -17 -17 -17 -15 -13 -13 -12 -11 -12 -11 -11 -10 -10 -9 -9 -9 -7 -6 -6 -6 -6 -6 -5 -7 -7 -7 -7 -6 -6 -5 -5 -5 -5 -5 -5 -5 -5
-21 -22 -21 -21 -20 -20 -20 -19 -19 -18 -17 -16 -15 -14 -12 -12 -11 -11 -10 -9 -10 -8 -8 -8 -8 -7 -7 -7 -7 -6 -6 -7 -7 -7 -6 -7 -6 -6 -5 -5 -5 -5 -5 -5
-21 -22 -22 -21 -21 -20 -20 -19 -19 -18 -17 -17 -15 -14 -13 -12 -12 -11 -10 -10 -9 -8 -6 -7 -8 -7 -7 -8 -7 -8 -7 -7 -7 -7 -7 -7 -7 -6 -5 -5 -5 -5 -5 -6
-21 -21 -22 -21 -21 -21 -21 -20 -20 -20 -18 -18 -16 -15 -14 -13 -12 -13 -11 -10 -9 -8 -8 -9 -8 -8 -7 -7 -7 -7 -7 -7 -7 -7 -7 -7 -7 -6 -6 -5 -5 -5 -5 -5
-21 -21 -21 -21 -21 -20 -21 -21 -20 -20 -18 -18 -16 -15 -15 -14 -14 -13 -12 -10 -10 -9 -8 -9 -8 -7 -7 -8 -8 -8 -7 -7 -8 -7 -7 -7 -7 -6 -6 -5 -5 -5 -5 -5
-21 -21 -20 -21 -20 -20 -20 -20 -20 -20 -19 -19 -18 -17 -15 -14 -14 -13 -13 -10 -9 -10 -9 -9 -9 -8 -8 -7 -8 -8 -8 -8 -8 -7 -7 -7 -7 -7 -6 -6 -6 -5 -5 -5
-20 -20 -20 -20 -20 -20 -20 -20 -20 -20 -20 -19 -19 -17 -16 -15 -14 -13 -13 -12 -11 -10 -11 -9 -9 -9 -8 -8 -8 -8 -8 -8 -7 -7 -7 -7 -7 -7 -7 -6 -6 -5 -5 -5
-20 -20 -20 -19 -20 -20 -20 -20 -20 -20 -20 -19 -19 -17 -16 -16 -14 -13 -13 -13 -13 -11 -10 -10 -10 -9 -8 -8 -8 -8 -8 -8 -8 -8 -7 -7 -7 -8 -7 -7 -6 -6 -5 -5
-20 -20 -19 -19 -19 -19 -19 -19 -19 -20 -20 -20 -19 -18 -17 -16 -14 -14 -14 -14 -12 -11 -10 -10 -10 -9 -9 -8 -8 -8 -8 -9 -8 -8 -8 -8 -8 -8 -8 -7 -7 -6 -6 -6

GFSCGP_500_temp_075.txt.gz
Temp
-6 -6 -5 -6 -6 -6 -5 -5 -5 -5 -7 -6 -5 -6 -6 -7 -6 -5 -6 -6 -5 -5 -4 -3 -4 -5 -5 -5 -5 -5 -5 -5 -5 -5 -5 -5 -5 -5 -5 -5 -6 -6 -6 -6
-6 -6 -6 -6 -6 -6 -6 -5 -5 -5 -6 -8 -8 -7 -6 -6 -7 -6 -5 -5 -5 -4 -4 -4 -3 -5 -5 -5 -5 -5 -5 -5 -4 -5 -5 -5 -5 -5 -5 -5 -6 -6 -6 -6
-6 -6 -7 -7 -6 -6 -6 -6 -6 -5 -6 -8 -9 -9 -8 -7 -7 -7 -7 -6 -4 -4 -5 -5 -4 -5 -5 -5 -5 -5 -5 -5 -4 -5 -5 -5 -5 -5 -5 -5 -5 -5 -5 -5
-7 -7 -7 -7 -6 -6 -6 -7 -6 -7 -6 -6 -8 -8 -8 -8 -8 -6 -7 -6 -5 -4 -5 -5 -5 -5 -5 -5 -4 -5 -5 -4 -4 -4 -5 -5 -5 -5 -5 -5 -5 -5 -5 -5
-7 -7 -7 -7 -7 -7 -6 -7 -7 -7 -7 -7 -7 -8 -7 -8 -8 -8 -6 -6 -5 -4 -5 -5 -5 -5 -4 -4 -4 -4 -5 -4 -4 -4 -4 -5 -5 -5 -5 -5 -5 -4 -5 -4
-7 -7 -7 -7 -7 -7 -7 -7 -7 -7 -6 -6 -6 -7 -5 -5 -7 -8 -6 -6 -5 -4 -4 -5 -5 -5 -5 -4 -4 -4 -5 -4 -4 -4 -4 -5 -5 -5 -5 -5 -5 -5 -5 -4
-9 -9 -9 -8 -7 -7 -7 -7 -7 -7 -6 -5 -5 -7 -6 -6 -6 -7 -6 -5 -5 -5 -5 -4 -5 -5 -5 -5 -5 -5 -5 -5 -4 -4 -4 -4 -5 -5 -5 -5 -5 -5 -5 -4
-10 -9 -10 -12 -10 -10 -8 -8 -8 -7 -6 -5 -7 -7 -5 -6 -8 -8 -6 -5 -4 -5 -6 -5 -5 -6 -5 -5 -5 -5 -5 -5 -5 -4 -4 -4 -4 -4 -5 -4 -4 -4 -4 -4
-11 -9 -10 -10 -11 -10 -10 -9 -8 -9 -8 -7 -8 -8 -6 -7 -7 -9 -7 -7 -6 -6 -5 -5 -5 -6 -7 -6 -6 -5 -5 -5 -4 -4 -4 -4 -4 -4 -4 -4 -4 -4 -4 -4
-11 -10 -12 -12 -11 -10 -10 -9 -10 -10 -9 -7 -7 -7 -6 -7 -8 -8 -8 -7 -8 -7 -6 -6 -6 -6 -6 -7 -7 -6 -5 -5 -5 -4 -4 -4 -4 -4 -4 -4 -4 -4 -4 -4
-12 -11 -12 -13 -13 -12 -12 -12 -13 -12 -11 -10 -9 -8 -7 -8 -9 -8 -8 -8 -7 -7 -7 -6 -6 -6 -5 -8 -7 -7 -6 -4 -4 -4 -4 -4 -4 -4 -4 -4 -4 -4 -4 -5
-13 -12 -12 -12 -13 -13 -13 -12 -14 -13 -12 -11 -10 -6 -8 -9 -9 -9 -8 -8 -8 -8 -8 -8 -5 -7 -5 -6 -6 -6 -6 -5 -4 -4 -4 -4 -4 -4 -4 -4 -4 -4 -4 -4
-14 -13 -13 -13 -13 -14 -14 -13 -14 -14 -13 -12 -11 -8 -9 -9 -9 -8 -8 -8 -8 -8 -9 -8 -6 -6 -6 -7 -7 -6 -6 -6 -5 -4 -4 -4 -4 -4 -4 -4 -5 -5 -4 -4
-15 -15 -14 -13 -13 -15 -15 -14 -14 -15 -13 -13 -12 -11 -9 -9 -10 -10 -8 -9 -9 -9 -9 -9 -8 -5 -4 -7 -8 -6 -7 -7 -7 -5 -4 -4 -4 -4 -4 -5 -4 -5 -5 -5
-16 -17 -17 -16 -14 -17 -15 -15 -14 -14 -14 -14 -13 -12 -11 -10 -11 -11 -10 -9 -10 -10 -10 -10 -8 -9 -8 -7 -6 -7 -5 -6 -7 -7 -6 -5 -4 -4 -4 -4 -5 -5 -5 -5
-17 -17 -18 -18 -17 -18 -17 -15 -15 -14 -12 -13 -13 -12 -11 -10 -11 -11 -10 -10 -10 -10 -10 -10 -9 -9 -7 -5 -7 -6 -5 -4 -6 -7 -7 -6 -5 -4 -4 -4 -5 -5 -5 -5
-18 -19 -20 -19 -20 -20 -18 -17 -16 -15 -13 -13 -13 -13 -14 -10 -11 -11 -11 -10 -10 -10 -10 -10 -8 -9 -8 -5 -6 -6 -5 -5 -6 -7 -7 -6 -6 -5 -4 -4 -5 -5 -5 -5
-19 -20 -21 -21 -21 -20 -18 -17 -17 -16 -15 -15 -14 -13 -13 -11 -11 -12 -11 -10 -10 -10 -10 -10 -10 -8 -7 -5 -4 -5 -5 -4 -6 -7 -7 -7 -6 -6 -5 -4 -4 -5 -5 -5
-20 -20 -20 -21 -21 -20 -20 -19 -17 -17 -16 -16 -15 -15 -13 -11 -9 -12 -10 -10 -10 -11 -10 -9 -9 -9 -8 -6 -4 -4 -6 -6 -6 -7 -8 -7 -7 -6 -6 -5 -5 -5 -5 -5
-20 -21 -21 -21 -21 -20 -20 -20 -19 -18 -17 -17 -16 -15 -13 -12 -11 -12 -12 -10 -8 -9 -9 -8 -9 -8 -7 -6 -5 -5 -8 -7 -7 -6 -7 -7 -7 -7 -6 -6 -5 -5 -5 -5
-20 -21 -21 -21 -21 -20 -21 -20 -19 -19 -18 -18 -17 -16 -14 -13 -11 -12 -12 -11 -9 -10 -10 -9 -8 -9 -8 -8 -9 -8 -6 -7 -6 -8 -8 -7 -7 -7 -7 -6 -6 -5 -5 -5
-20 -20 -21 -21 -21 -21 -20 -20 -20 -19 -19 -18 -17 -17 -16 -14 -13 -13 -12 -12 -10 -11 -10 -9 -9 -9 -8 -9 -10 -10 -8 -6 -8 -8 -7 -8 -7 -8 -7 -6 -6 -5 -5 -5
-20 -20 -20 -20 -20 -21 -20 -20 -19 -19 -19 -19 -18 -17 -16 -15 -14 -14 -13 -12 -12 -11 -10 -10 -10 -9 -8 -8 -9 -9 -8 -7 -6 -8 -8 -7 -8 -8 -7 -7 -6 -6 -5 -5
-20 -20 -20 -20 -20 -20 -20 -19 -19 -19 -19 -19 -19 -18 -17 -16 -15 -14 -13 -12 -12 -12 -11 -10 -10 -10 -9 -8 -8 -8 -8 -8 -7 -7 -8 -8 -8 -8 -8 -8 -7 -6 -6 -5
-20 -20 -20 -20 -20 -19 -19 -19 -19 -19 -19 -19 -19 -18 -18 -17 -16 -14 -14 -12 -11 -11 -12 -12 -10 -11 -10 -9 -8 -7 -7 -8 -7 -7 -8 -8 -8 -8 -8 -8 -7 -7 -6 -6
-19 -19 -19 -20 -20 -20 -19 -19 -19 -18 -19 -18 -18 -18 -19 -18 -17 -15 -14 -13 -11 -11 -11 -12 -11 -11 -11 -10 -9 -8 -7 -8 -8 -7 -8 -8 -8 -8 -8 -8 -7 -7 -7 -6